USA 159 (DSP 21)

Last updated on Thu Oct 30 2025 00:02:47 GMT+0000 (Coordinated Universal Time)

1 26880U 01033A 25302.10446943 -.00000285 00000+0 00000+0 0 9998 2 26880 12.5679 18.0247 0000859 229.7370 138.3044 1.00279080 30654
UTC large
Height (km)
Speed (km/s)
/
Latitude / Longitude
Inclination (degrees)
Orbital Period (minutes)
Azimuth
Elevation
Range (km)
Doppler Factor

Next 0 passes for location: London (51.5072 / 0.1276)

Sorry there are no passes over London.